This demonstration page uses our WeatherBlox Daily Observations layout. Learn more.

Left ArrowRight Arrow

Hourly Observations for November 27, 2015

Temp ( °F °C ) Dew Point ( °F °C ) Humidity (%) Winds ( mph kmh ) Pressure ( in mb ) Visibility ( mi km ) Precip ( " mm )
12:53 am 00:53 Clear 58 14.4 42 5.6 56 56 SSE 8 13 30.40 1029 10 16 0.00 0.00
1:53 am 01:53 Clear 58 14.4 42 5.6 56 56 VRB 5 7 30.39 1029 10 16 0.00 0.00
2:53 am 02:53 Cloudy 59 15 42 5.6 54 54 S 5 7 30.40 1029 10 16 0.00 0.00
3:53 am 03:53 Mostly Cloudy 56 13.3 42 5.6 60 60 SSE 3 6 30.38 1029 10 16 0.00 0.00
4:53 am 04:53 Partly Cloudy 55 12.8 43 6.1 64 64 VRB 3 6 30.38 1029 10 16 0.00 0.00
5:53 am 05:53 Cloudy 56 13.3 43 6.1 62 62 Calm 30.38 1029 10 16 0.00 0.00
6:53 am 06:53 Mostly Cloudy 54 12.2 43 6.1 67 67 ESE 3 6 30.38 1029 10 16 0.00 0.00
7:53 am 07:53 Mostly Cloudy 53 11.7 44 6.7 72 72 SE 3 6 30.40 1029 10 16 0.00 0.00
8:53 am 08:53 Mostly Cloudy 55 12.8 45 7.2 69 69 Calm 30.40 1030 10 16 0.00 0.00
9:53 am 09:53 Cloudy 59 15 47 8.3 64 64 SSW 3 6 30.40 1029 10 16 0.00 0.00
10:53 am 10:53 Cloudy 60 15.6 49 9.4 67 67 SSW 8 13 30.39 1029 10 16 0.00 0.00
11:53 am 11:53 Mostly Cloudy 61 16.1 49 9.4 65 65 S 6 9 30.37 1029 10 16 0.00 0.00
12:53 pm 12:53 Cloudy with Light Rain 62 16.7 50 10 65 65 SSW 9 15 30.34 1028 10 16 0.00 0.03
1:53 pm 13:53 Partly Cloudy 63 17.2 50 10 63 63 VRB 6 9 30.31 1026 10 16 0.00 0.03
2:53 pm 14:53 Partly Cloudy 63 17.2 50 10 63 63 SSW 8 13 30.28 1026 10 16 0.00 0.00
3:53 pm 15:53 Cloudy 63 17.2 51 10.6 65 65 S 5 7 30.27 1025 10 16 0.00 0.00
4:53 pm 16:53 Cloudy with Light Rain 59 15 54 12.2 83 83 Calm 30.28 1026 10 16 0.00 0.03
5:53 pm 17:53 Cloudy with Light Rain 56 13.3 54 12.2 93 93 Calm 30.29 1026 10 16 0.01 0.25
6:53 pm 18:53 Cloudy with Light Rain 57 13.9 55 12.8 93 93 SSE 3 6 30.29 1026 10 16 0.02 0.51
7:53 pm 19:53 Cloudy with Light Rain 56 13.3 55 12.8 97 97 Calm 30.29 1026 10 16 0.01 0.25
8:53 pm 20:53 Cloudy with Light Rain 56 13.3 55 12.8 97 97 Calm 30.28 1025 9 14 0.01 0.25
9:53 pm 21:53 Cloudy with Light Rain 56 13.3 55 12.8 97 97 Calm 30.27 1025 7 11 0.02 0.51
10:08 pm 22:08 Cloudy with Light Rain 56 13.3 55 12.8 97 97 Calm 30.27 1025 6 10 0.01 0.25
10:36 pm 22:36 Cloudy with Rain 56 13.3 55 12.8 97 97 Calm 30.27 1025 3 5 0.04 1.02
10:53 pm 22:53 Cloudy with Light Rain 56 13.3 55 12.8 97 97 Calm 30.26 1025 6 10 0.05 1.27
11:41 pm 23:41 Cloudy with Rain 56 13.3 55 12.8 97 97 Calm 30.27 1025 4 6 0.03 0.76
11:53 pm 23:53 Cloudy with Light Rain 57 13.9 56 13.3 96 96 Calm 30.26 1025 4 6 0.04 1.02

Powered by AerisWeather